Flag for U.S.A. Weather past 2 weeks in Concord, California, U.S.A.

Now
57 °F

Clear.


Feels Like: 55 °F
Forecast: 52 / 73 °F
Wind: 9 mph from South

Location: Buchanan Field


UV Index: 5 (Moderate)

Visibility: 10 mi


Pressure: 30.00 "Hg

Humidity: 58%

Dew point: 42 °F

Location of ConcordLocation

Historic Weather in Concord

°F

Concord temperature yesterday

Maximum temperature yesterday: 81 °F (at 3:53 PM)
Minimum temperature yesterday: 51 °F (at 4:53 AM)
Average temperature yesterday: 65 °F

Past Weeks' High & Low Weather Summary

 TemperatureHumidityPressure
High82 °F (Apr 8, 4:53 PM)97% (Apr 11, 3:53 AM)30.20 "Hg (Apr 11, 3:53 AM)
Low46 °F (Apr 10, 5:53 AM)21% (Apr 20, 3:53 PM)29.75 "Hg (Apr 17, 5:53 AM)
Average62 °F66%29.94 "Hg
* Reported Apr 6 1:53 AM — Apr 21 1:53 AM, Concord, Weather by CustomWeather, © 2014

Note: Actual official high and low records may vary slightly from our data, if they occured in-between our weather recording intervals... More about our weather records

Advertising

Historic Weather Conditions — Data for Previous 24 hours

 ConditionsComfort  
Time TempWeatherWind HumidityBarometerVisibility
1:53 AM
Apr 21
58 °FClear.8 mph58%30.01 "Hg10 mi
12:53 AM58 °FClear.8 mph62%30.02 "Hg10 mi
11:53 PM
Apr 20
61 °FClear.8 mph52%30.01 "Hg10 mi
10:53 PM63 °FClear.5 mph41%30.01 "Hg10 mi
9:53 PM65 °FClear.3 mph40%30.01 "Hg10 mi
8:53 PM67 °FClear.7 mph37%30.01 "Hg10 mi
7:53 PM71 °FSunny.10 mph38%30.00 "Hg10 mi
6:53 PM74 °FSunny.10 mph32%30.00 "Hg10 mi
5:53 PM79 °FSunny.14 mph31%30.00 "Hg10 mi
4:53 PM81 °FSunny.9 mph22%30.00 "Hg10 mi
3:53 PM81 °FSunny.6 mph21%30.01 "Hg10 mi
2:53 PM80 °FSunny.10 mph28%30.03 "Hg10 mi
1:53 PM78 °FSunny.3 mph31%30.05 "Hg10 mi
12:53 PM74 °FSunny.8 mph37%30.07 "Hg10 mi
11:53 AM72 °FSunny.10 mph41%30.09 "Hg10 mi
10:53 AM68 °FSunny.3 mph49%30.10 "Hg10 mi
9:53 AM62 °FSunny.No wind65%30.10 "Hg10 mi
8:53 AM57 °FSunny.5 mph81%30.10 "Hg10 mi
7:53 AM53 °FSunny.5 mph89%30.09 "Hg10 mi
6:53 AM51 °FClear.5 mph92%30.09 "Hg10 mi
5:53 AM51 °FClear.8 mph92%30.08 "Hg10 mi
4:53 AM51 °FClear.6 mph92%30.07 "Hg10 mi
3:53 AM53 °FClear.7 mph89%30.08 "Hg10 mi
Weather by CustomWeather, © 2014

See weather overview